Regional Weather Roundup
Issued by NWS

Home | Current Version | Previous Version | Graphics & Text | Print | Product List | Glossary Off
Versions: 1 2 3 4 5 6 7 8 9 10 11 12 13 14 15 16 17 18 19 20 21 22 23 24 25 26 27 28 29 30 31 32 33 34 35 36 37 38 39 40 41 42 43 44 45 46 47 48 49 50

000
ASUS43 KMPX 220410
RWRMN
WEATHER ROUNDUP FOR MINNESOTA
NATIONAL WEATHER SERVICE TWIN CITIES/CHANHASSEN MN
1100 PM CDT SAT APR 21 2018


NOTE: "FAIR" INDICATES FEW OR NO CLOUDS BELOW 12,000 FEET WITH NO
SIGNIFICANT WEATHER AND/OR OBSTRUCTIONS TO VISIBILITY. N/A MEANS
CURRENT SKY AND/OR WEATHER CONDITIONS ARE NOT AVAILABLE.

MNZ060>063-068>070-220500-
   Twin Cities Metro

CITY           SKY/WX    TMP DP  RH WIND       PRES   REMARKS
TWIN CITIES    FAIR      51  33  50 SW5       30.36S
ST PAUL        FAIR      43  36  76 E3        30.37S
CRYSTAL        FAIR      42  23  46 CALM      30.35S
BLAINE         FAIR      43  25  49 CALM      30.35S
LAKEVILLE      FAIR      39  34  81 CALM      30.36S
EDEN PRAIRIE   FAIR      48  33  56 S3        30.34F
SOUTH ST PAUL  FAIR      45  33  62 CALM      30.36S
LAKE ELMO      FAIR      37  34  87 CALM      30.37S
$$
MNZ001>005-007-008-013>017-022>024-027-028-220500-
   Northwest Minnesota

CITY           SKY/WX    TMP DP  RH WIND       PRES   REMARKS
BEMIDJI        FAIR      44  28  53 S3        30.29S
HALLOCK        FAIR      46  43  87 SE10      30.22S
ROSEAU         FAIR      43  37  81 SE7       30.25F
WARROAD        FAIR      43  37  81 CALM      30.27S
THIEF RVR FALL FAIR      47  37  68 S7        30.27F
CROOKSTON      FAIR      46  39  76 S12       30.27S
FOSSTON        FAIR      39  34  81 S7        30.29S
DETROIT LAKES  FAIR      45  34  65 CALM      30.31S
MOORHEAD       FAIR      46  39  76 S10       30.29S
PARK RAPIDS    FAIR      46  32  58 S5        30.30S
MAHNOMEN       FAIR      41  35  79 S6        30.29S
$$
MNZ006-009>011-018-025>026-220500-
   North Central Minnesota

CITY           SKY/WX    TMP DP  RH WIND       PRES   REMARKS
BAUDETTE       FAIR      41  35  79 CALM      30.27S
FLAG ISLAND    FAIR      43  30  61 SE5       30.25F
INTL FALLS     FAIR      41  25  53 CALM      30.29R
WASKISH        FAIR      37  27  65 SE3       30.29S
BIG FORK       FAIR      36  21  55 CALM      30.31S
LONGVILLE      FAIR      32  25  74 CALM      30.32S
GRAND RAPIDS   FAIR      39  21  48 S6        30.35R
CRANE LAKE     FAIR      28  23  80 CALM      30.33R
ORR            FAIR      43  16  33 CALM      30.29S
COOK           FAIR      36  19  51 SE3       30.33R
WALKER         FAIR      40  28  60 CALM      30.31R
$$
MNZ012-019>021-037-220500-
   Northeast Minnesota

CITY           SKY/WX    TMP DP  RH WIND       PRES   REMARKS
DULUTH         FAIR      43  18  36 E3        30.35R
ELY            FAIR      36  16  44 CALM      30.33R
HIBBING        FAIR      32  21  64 CALM      30.33R
EVELETH        FAIR      33  22  65 CALM      30.35R
DULUTH HARBOR  FAIR      37  30  75 CALM      30.37R
TWO HARBORS    FAIR      32  23  69 CALM      30.34S
SILVER BAY     FAIR      30  21  69 CALM      30.34S
GRAND MARAIS     N/A     31  23  72 CALM      30.37R
G MARAIS ARPRT FAIR      32  16  51 CALM      30.35S
$$
MNZ029>031-032-039>041-046>048-054>057-064-220500-
   West Central Minnesota

CITY           SKY/WX    TMP DP  RH WIND       PRES   REMARKS
FERGUS FALLS   FAIR      39  34  81 S6        30.30R
WHEATON        CLEAR     45  37  76 S10       30.33F
MORRIS         CLEAR     41  37  87 S5        30.31F
ALEXANDRIA     FAIR      44  34  67 S3        30.33S
ELBOW LAKE     FAIR      39  33  78 S6        30.32S
WADENA         FAIR      39  34  81 CALM      30.32S
GLENWOOD       FAIR      37  34  87 S5        30.34S
APPLETON       CLEAR     39  34  81 CALM      30.32F
BENSON         CLEAR     43  37  81 S3        30.33F
ORTONVILLE     CLEAR     39  34  81 S5        30.32S
MADISON        CLEAR     41  37  87 S6        30.33R
WILLMAR        FAIR      39  37  93 E3        30.35F
$$
MNZ033>034-036-042>043-049>051-058-059-220500-
   Central Minnesota

CITY           SKY/WX    TMP DP  RH WIND       PRES   REMARKS
ST CLOUD       FAIR      37  30  75 CALM      30.34S
SAUK CENTRE    FAIR      41  34  76 S5        30.34S
PAYNESVILLE    FAIR      39  34  82 CALM      30.34F
AITKIN         FAIR      28  21  74 CALM      30.33S
PINE RIVER     FAIR      37  28  70 CALM      30.35S
BRAINERD       FAIR      37  26  64 SE3       30.33S
STAPLES        FAIR      43  30  61 S5        30.32S
LONG PRAIRIE   FAIR      39  32  75 CALM      30.34S
LITTLE FALLS   FAIR      39  27  60 CALM      30.34S
LITCHFIELD     FAIR      41  34  75 CALM      30.35S
BUFFALO        FAIR      39  32  75 CALM      30.36S
MAPLE LAKE     FAIR      37  32  82 CALM      30.35F
HUTCHINSON     FAIR      39  35  86 CALM      30.36S
$$
MNZ037-044-045-052-053-220500-
   East Central Minnesota

CITY           SKY/WX    TMP DP  RH WIND       PRES   REMARKS
PRINCETON      FAIR      36  27  69 CALM      30.35F
MORA           FAIR      32  27  80 CALM      30.37S
CAMBRIDGE      FAIR      37  25  60 CALM      30.36S
RUSH CITY      FAIR      37  25  62 CALM      30.35F
MOOSE LAKE     FAIR      34  23  64 CALM      30.33S
HINCKLEY       FAIR      32  25  74 CALM      30.35S
CLOQUET        FAIR      37  12  35 CALM      30.35R
MCGREGOR       FAIR      34  21  60 CALM      30.34S
$$
MNZ071>073-080-081-089-090-097-098-220500-
   Southwest Minnesota

CITY           SKY/WX    TMP DP  RH WIND       PRES   REMARKS
MONTEVIDEO     CLEAR     39  36  87 S5        30.34R
GRANITE FALLS  CLEAR     42  36  80 SE3       30.35R
CANBY          CLEAR     37  35  92 CALM      30.34R
MARSHALL       CLEAR     36  32  85 CALM      30.34R
REDWOOD FALLS  CLEAR     40  35  83 SE6       30.34R
OLIVIA         CLEAR     39  36  87 CALM      30.33S
PIPESTONE      MOCLDY   N/A N/A N/A SE6       30.31S
WINDOM         CLEAR     39  21  48 E3        30.33S
WORTHINGTON    CLOUDY    37  31  78 E5        30.32S
JACKSON        CLOUDY    36  32  87 E7        30.32F
TRACY          CLEAR     41  32  70 S5        30.33R
SLAYTON        CLEAR     37  32  82 CALM      30.33S
$$
MNZ065>067-074>077-082>085-091>093-220500-
   South Central Minnesota

CITY           SKY/WX    TMP DP  RH WIND       PRES   REMARKS
MANKATO        FAIR      44  36  73 SE7       30.36S
NEW ULM        CLEAR     43  34  70 CALM      30.35S
ST JAMES       CLEAR     39  34  81 E3        30.35F
FAIRMONT       PTCLDY    38  32  79 E3        30.33F
GLENCOE        FAIR      40  33  75 CALM      30.34F
OWATONNA       CLOUDY    43  36  75 SE5       30.36S
WASECA         FAIR      39  34  81 E7        30.37S
ALBERT LEA     FAIR      39  32  75 CALM      30.35F
$$
MNZ078>079-086>088-094>096-220500-
   Southeast Minnesota

CITY           SKY/WX    TMP DP  RH WIND       PRES   REMARKS
ROCHESTER      FAIR      43  35  73 S5        30.36S
RED WING       FAIR      36  28  75 CALM      30.36F
STANTON        FAIR      37  32  82 S3        30.35S
DODGE CENTER   MOCLDY    41  36  81 CALM      30.37S
WINONA         FAIR      43  36  75 CALM      30.35S
AUSTIN         FAIR      37  34  87 CALM      30.35F
PRESTON        FAIR      45  31  58 CALM      30.36F
$$
ABBREVIATIONS USED IN REMARKS
   TC - TEMPERATURES IN CELSIUS
  WCI - WIND CHILL INDEX
   HX - HEAT INDEX
  VSB - VISIBILITY
$$




USA.gov is the U.S. government's official web portal to all federal, state and local government web resources and services.